When you browse on this site, cookies collect data to enhance your experience and personalize the content and advertising you see.
Visit our Privacy Policy to learn more. By continuing to use the site, you agree to this use of cookies and data.
  • en Suisse
  • Liste des pays
  • À 7 jours
  • Température de l'eau
  • Carte météo
  • Widgets météo
  • user-avatar
    Se connecter

    Météo par heure à Pinsk

    Ce jour, 10 Avril, Vendredi

    Heure Température Précipitation Vent Pression Humidité
    00:00 +9°C° 0 mm 5 m/s 749 mmHg 76%
    01:00 +7°C° 0 mm 5 m/s 749 mmHg 78%
    02:00 +6°C° 0 mm 4 m/s 750 mmHg 80%
    03:00 +6°C° 0 mm 4 m/s 750 mmHg 81%
    04:00 +5°C° 0 mm 4 m/s 750 mmHg 81%
    05:00 +5°C° 0 mm 4 m/s 751 mmHg 81%
    06:00 +5°C° 0 mm 5 m/s 751 mmHg 73%
    07:00 +5°C° 0 mm 5 m/s 752 mmHg 64%
    08:00 +4°C° 0 mm 6 m/s 753 mmHg 55%
    09:00 +5°C° 0 mm 6 m/s 753 mmHg 50%
    10:00 +5°C° 0 mm 6 m/s 753 mmHg 45%
    11:00 +6°C° 0 mm 7 m/s 754 mmHg 40%
    12:00 +8°C° 0 mm 6 m/s 754 mmHg 38%
    13:00 +8°C° 0 mm 6 m/s 754 mmHg 36%
    14:00 +9°C° 0 mm 6 m/s 753 mmHg 34%
    15:00 +9°C° 0 mm 5 m/s 753 mmHg 35%
    16:00 +9°C° 0 mm 5 m/s 753 mmHg 36%
    17:00 +9°C° 0 mm 5 m/s 753 mmHg 37%
    18:00 +7°C° 0 mm 4 m/s 753 mmHg 42%
    19:00 +7°C° 0 mm 3 m/s 753 mmHg 48%
    20:00 +6°C° 0 mm 2 m/s 754 mmHg 53%
    21:00 +5°C° 0 mm 2 m/s 754 mmHg 55%
    22:00 +5°C° 0 mm 2 m/s 754 mmHg 56%
    23:00 +5°C° 0 mm 1 m/s 754 mmHg 57%

    Demain, 11 Avril, Samedi

    Heure Température Précipitation Vent Pression Humidité
    00:00 +5°C° 0 mm 1 m/s 754 mmHg 59%
    01:00 +3°C° 0 mm 2 m/s 754 mmHg 61%
    02:00 +3°C° 0 mm 2 m/s 754 mmHg 63%
    03:00 +3°C° 0 mm 2 m/s 754 mmHg 64%
    04:00 +3°C° 0 mm 2 m/s 754 mmHg 65%
    05:00 +2°C° 0 mm 2 m/s 754 mmHg 67%
    06:00 +2°C° 0 mm 3 m/s 754 mmHg 64%
    07:00 +3°C° 0 mm 3 m/s 754 mmHg 61%
    08:00 +4°C° 0 mm 4 m/s 755 mmHg 58%
    09:00 +5°C° 0 mm 4 m/s 755 mmHg 54%
    10:00 +6°C° 0 mm 4 m/s 756 mmHg 49%
    11:00 +8°C° 0 mm 4 m/s 756 mmHg 44%
    12:00 +8°C° 0 mm 4 m/s 756 mmHg 42%
    13:00 +9°C° 0 mm 5 m/s 756 mmHg 39%
    14:00 +9°C° 0 mm 5 m/s 756 mmHg 37%
    15:00 +9°C° 0 mm 5 m/s 756 mmHg 38%
    16:00 +8°C° 0 mm 5 m/s 756 mmHg 40%
    17:00 +8°C° 0 mm 5 m/s 756 mmHg 41%
    18:00 +7°C° 0 mm 4 m/s 757 mmHg 45%
    19:00 +5°C° 0 mm 3 m/s 757 mmHg 49%
    20:00 +4°C° 0 mm 2 m/s 757 mmHg 53%
    21:00 +5°C° 0 mm 1 m/s 758 mmHg 53%
    22:00 +4°C° 0 mm 1 m/s 758 mmHg 53%
    23:00 +4°C° 0 mm 1 m/s 758 mmHg 53%

    Après-demain, 12 Avril, Dimanche

    Heure Température Précipitation Vent Pression Humidité
    00:00 +3°C° 0 mm 1 m/s 758 mmHg 53%
    01:00 +3°C° 0 mm 1 m/s 758 mmHg 54%
    02:00 +3°C° 0 mm 1 m/s 758 mmHg 54%
    03:00 +3°C° 0 mm 1 m/s 758 mmHg 55%
    04:00 +1°C° 0 mm 2 m/s 757 mmHg 56%
    05:00 +1°C° 0 mm 2 m/s 757 mmHg 56%
    06:00 +2°C° 0 mm 2 m/s 757 mmHg 54%
    07:00 +3°C° 0 mm 3 m/s 757 mmHg 52%
    08:00 +4°C° 0 mm 3 m/s 757 mmHg 50%
    09:00 +5°C° 0 mm 3 m/s 756 mmHg 46%
    10:00 +8°C° 0 mm 3 m/s 756 mmHg 43%
    11:00 +10°C° 0 mm 4 m/s 756 mmHg 39%
    12:00 +10°C° 0 mm 4 m/s 755 mmHg 38%
    13:00 +11°C° 0 mm 4 m/s 754 mmHg 36%
    14:00 +12°C° 0 mm 3 m/s 754 mmHg 35%
    15:00 +12°C° 0 mm 3 m/s 753 mmHg 37%
    16:00 +12°C° 0 mm 3 m/s 753 mmHg 39%
    17:00 +12°C° 0 mm 3 m/s 752 mmHg 41%
    18:00 +11°C° 0 mm 3 m/s 751 mmHg 43%
    19:00 +10°C° 0 mm 2 m/s 751 mmHg 46%
    20:00 +9°C° 0 mm 2 m/s 750 mmHg 49%
    21:00 +8°C° 0 mm 3 m/s 750 mmHg 52%
    22:00 +7°C° 0 mm 3 m/s 750 mmHg 54%
    23:00 +5°C° 0 mm 3 m/s 749 mmHg 57%

    13 Avril, Lundi

    Heure Température Précipitation Vent Pression Humidité
    00:00 +5°C° 0 mm 3 m/s 749 mmHg 61%
    01:00 +5°C° 0 mm 3 m/s 748 mmHg 65%
    02:00 +4°C° 0 mm 3 m/s 748 mmHg 68%
    03:00 +4°C° 0 mm 3 m/s 747 mmHg 71%
    04:00 +4°C° 0 mm 3 m/s 747 mmHg 74%
    05:00 +4°C° 0 mm 3 m/s 746 mmHg 77%
    06:00 +7°C° 0 mm 3 m/s 746 mmHg 76%
    07:00 +7°C° 0 mm 4 m/s 746 mmHg 74%
    08:00 +10°C° 0 mm 4 m/s 745 mmHg 72%
    09:00 +12°C° 0 mm 5 m/s 745 mmHg 66%
    10:00 +14°C° 0 mm 6 m/s 744 mmHg 61%
    11:00 +16°C° 0 mm 6 m/s 744 mmHg 55%
    12:00 +17°C° 0 mm 7 m/s 743 mmHg 52%
    13:00 +18°C° 0 mm 7 m/s 743 mmHg 48%
    14:00 +18°C° 0 mm 8 m/s 742 mmHg 45%
    15:00 +18°C° 0.2 mm 8 m/s 741 mmHg 49%
    16:00 +17°C° 0.2 mm 8 m/s 741 mmHg 53%
    17:00 +16°C° 0.2 mm 7 m/s 740 mmHg 58%
    18:00 +15°C° 0.1 mm 7 m/s 739 mmHg 61%
    19:00 +14°C° 0.1 mm 6 m/s 739 mmHg 65%
    20:00 +13°C° 0.1 mm 6 m/s 738 mmHg 69%
    21:00 +11°C° 1.2 mm 6 m/s 738 mmHg 75%
    22:00 +10°C° 1.2 mm 6 m/s 738 mmHg 80%
    23:00 +9°C° 1.2 mm 6 m/s 738 mmHg 86%

    14 Avril, Mardi

    Heure Température Précipitation Vent Pression Humidité
    00:00 +8°C° 0.1 mm 6 m/s 738 mmHg 85%
    01:00 +7°C° 0.1 mm 5 m/s 739 mmHg 84%
    02:00 +5°C° 0.1 mm 5 m/s 739 mmHg 83%
    03:00 +3°C° 0.1 mm 5 m/s 739 mmHg 84%
    04:00 +2°C° 0.1 mm 6 m/s 740 mmHg 86%
    05:00 +1°C° 0.1 mm 6 m/s 741 mmHg 87%
    06:00 +1°C° 0.1 mm 6 m/s 741 mmHg 82%
    07:00 +1°C° 0.1 mm 6 m/s 742 mmHg 77%
    08:00 +1°C° 0.1 mm 6 m/s 743 mmHg 72%
    09:00 +2°C° 0 mm 6 m/s 743 mmHg 63%
    10:00 +2°C° 0 mm 6 m/s 744 mmHg 55%
    11:00 +3°C° 0 mm 6 m/s 744 mmHg 46%
    12:00 +4°C° 0 mm 6 m/s 744 mmHg 43%
    13:00 +5°C° 0 mm 6 m/s 744 mmHg 41%
    14:00 +5°C° 0 mm 6 m/s 744 mmHg 38%
    15:00 +5°C° 0 mm 6 m/s 744 mmHg 40%
    16:00 +5°C° 0 mm 6 m/s 744 mmHg 41%
    17:00 +5°C° 0 mm 6 m/s 744 mmHg 43%
    18:00 +4°C° 0.1 mm 6 m/s 744 mmHg 50%
    19:00 +3°C° 0.1 mm 6 m/s 745 mmHg 57%
    20:00 +1°C° 0.1 mm 5 m/s 745 mmHg 64%
    21:00 +1°C° 0 mm 5 m/s 746 mmHg 67%
    22:00 0°C° 0 mm 5 m/s 746 mmHg 71%
    23:00 -1°C° 0 mm 5 m/s 746 mmHg 75%

    15 Avril, Mercredi

    Heure Température Précipitation Vent Pression Humidité
    00:00 -1°C° 0 mm 5 m/s 746 mmHg 76%
    01:00 -2°C° 0 mm 5 m/s 747 mmHg 77%
    02:00 -2°C° 0 mm 5 m/s 747 mmHg 78%
    03:00 -2°C° 0 mm 5 m/s 747 mmHg 79%
    04:00 -4°C° 0 mm 5 m/s 747 mmHg 80%
    05:00 -4°C° 0 mm 5 m/s 747 mmHg 81%
    06:00 -2°C° 0 mm 5 m/s 747 mmHg 77%
    07:00 -2°C° 0 mm 6 m/s 747 mmHg 73%
    08:00 -1°C° 0 mm 6 m/s 747 mmHg 70%
    09:00 +1°C° 0 mm 6 m/s 747 mmHg 64%
    10:00 +3°C° 0 mm 7 m/s 747 mmHg 58%
    11:00 +4°C° 0 mm 7 m/s 746 mmHg 53%
    12:00 +4°C° 0.4 mm 7 m/s 745 mmHg 62%
    13:00 +2°C° 0.4 mm 8 m/s 745 mmHg 71%
    14:00 +2°C° 0.4 mm 8 m/s 744 mmHg 81%
    15:00 +2°C° 0.7 mm 8 m/s 743 mmHg 84%
    16:00 +2°C° 0.7 mm 9 m/s 743 mmHg 87%
    17:00 +2°C° 0.7 mm 9 m/s 742 mmHg 90%
    18:00 +1°C° 1 mm 8 m/s 741 mmHg 88%
    19:00 0°C° 1 mm 7 m/s 741 mmHg 87%
    20:00 +1°C° 1 mm 6 m/s 741 mmHg 85%
    21:00 -1°C° 0.1 mm 7 m/s 741 mmHg 88%
    22:00 -1°C° 0.1 mm 7 m/s 741 mmHg 91%
    23:00 -2°C° 0.1 mm 8 m/s 741 mmHg 93%
    Voir plus